Probability
0 0 0 0 0 0 0 0 0 0 0 0 0 3 0 3 0 0 0 0 0 0 0 0 0 0 0 0 0 0 0 0 0 0 0 3 0 0
0 0 0 0 0 0 0 0 0 0 0 0 0 0 0 0 0 0 0 0 0 0 0 0 0 0 0 0 0 0 0 0 0 0 0 0 0 0
0 0 0 0 0 0 0 0 0 0 0 0 0 0 0 0 0 0 0 0 0 0 0 0 0 0 0 0 0 0 0 0 0 0 0 0 0 0
0 0 0 0 0 0 0 0 0 0 0 0 0 0 0 0 0 0 0 0 0 0 0 0 0 0 0 0 0 0 0 0 0 0 0 0 0 0
0 0 0 0 0 0 0 0 0 0 0 0 0 0 0 0 0 0 0 0 0 0 0 0 0 0 0 0 0 0 0 0 0 0 0 0 0 0
0 0 0 0 0 0 0 0 0 0 0 0 0 0 0 0 0 0 0 0 0 0 0 0 0 0 0 0 0 0 0 0 0 0 0 0 0 0
0 0 0 0 0 0 0 0 0 0 0 0 0 0 0 0 0 0 0 0 0 0 0 0 0 0 0 0 0 0 0 0 0 0 0 0 0 0
0 0 0 0 0 0 0 0 0 0 0 0 0 0 0 0 0 0 0 0 0 0 0 0 0 0 0 0 0 0 0 0 0 0 0 0 0 0
0 0 0 0 0 0 0 0 0 0 0 0 0 0 0 0 0 0 0 0 0 0 0 0 0 0 0 0 0 0 0 0 0 0 0 0 0 0
0 0 0 0 0 0 0 0 0 0 0 0 0 0 0 0 0 0 0 0 0 0 0 0 0 0 0 0 0 0 0 0 0 0 0 0 0 0
0 0 0 0 0 0 0 0 0 0 0 0 0 0 0 0 0 0 0 0 0 0 0 0 0 0 0 0 0 0 0 0 0 0 0 0 0 0
0 0 0 0 0 0 0 0 0 0 0 0 0 0 0 0 0 0 0 0 0 0 0 0 0 0 0 0 0 0 0 0 0 0 0 0 0 0
0 0 0 0 0 0 0 0 0 0 0 0 0 0 0 0 0 0 0 0 0 0 0 0 0 0 0 0 0 0 0 0 0 0 0 0 0 0
0 0 0 0 0 0 0 0 0 0 0 0 0 0 0 0 0 0 0 0 0 0 0 0 0 0 0 0 0 0 0 0 0 0 0 0 0 0
0 0 0 0 0 0 0 0 0 0 0 0 0 0 0 0 0 0 0 0 0 0 0 0 0 0 0 0 0 0 0 0 0 0 0 0 0 0
0 0 0 0 0 0 0 0 0 0 0 0 0 0 0 0 0 0 0 0 0 0 0 0 0 0 0 0 0 0 0 0 0 0 0 0 0 0
0 0 0 0 0 0 0 0 0 0 0 0 0 0 0 0 0 0 0 0 0 0 0 0 0 0 0 0 0 0 0 0 0 0 0 0 0 0
0 0 0 0 0 0 0 0 0 0 0 0 0 0 0 0 0 0 0 0 0 0 0 0 0 0 0 0 0 0 0 0 0 0 0 0 0 0
0 0 0 0 0 0 0 0 0 0 0 0 0 0 0 0 0 0 0 0 0 0 0 0 0 0 0 0 0 0 0 0 0 0 0 0 0 0
0 0 0 0 0 0 0 0 0 0 0 0 0 0 0 0 0 0 0 0 0 0 0 0 0 0 0 0 0 0 0 0 0 0 0 0 0 0
0 0 0 0 0 0 0 0 0 0 0 0 0 0 0 0 0 0 0 0 0 0 0 0 0 0 0 0 0 0 0 0 0 0 0 0 0 0
0 0 0 0 0 0 0 0 0 0 0 0 0 0 0 0 0 0 0 0 0 0 0 0 0 0 0 0 0 0 0 0 0 0 0 0 0 0
0 0 0 0 0 0 0 0 0 0 0 0 0 0 0 0 0 0 0 0 0 0 0 0 0 0 0 0 0 0 0 0 0 0 0 0 0 0
Height
5756 5757 5758 5759 5761 5763 5766 5769 5772 5774 5776 5777 5778 5779 5779 5781 5781 5782 5782 5783 5783 5782 5781 5780 5779 5779 5779 5779 5779 5779 5780 5781 5781 5783 5785 5786 5787 5789
5748 5748 5749 5750 5752 5755 5759 5762 5764 5766 5768 5769 5770 5771 5772 5773 5773 5773 5774 5774 5773 5772 5770 5769 5768 5768 5768 5768 5768 5769 5769 5770 5772 5773 5774 5775 5776 5779
5741 5742 5742 5744 5747 5749 5752 5755 5757 5759 5760 5761 5762 5763 5764 5764 5765 5765 5765 5765 5764 5762 5760 5758 5757 5757 5757 5756 5756 5757 5758 5759 5761 5763 5764 5766 5767 5769
5735 5736 5738 5740 5742 5745 5748 5750 5752 5753 5754 5754 5754 5755 5755 5756 5756 5755 5755 5754 5753 5751 5749 5748 5747 5747 5746 5745 5745 5745 5746 5748 5750 5752 5754 5756 5757 5759
5730 5732 5734 5736 5738 5741 5743 5744 5745 5746 5746 5747 5747 5747 5747 5747 5746 5745 5744 5744 5742 5740 5738 5738 5737 5737 5735 5734 5733 5733 5735 5736 5739 5741 5743 5745 5747 5750
5726 5728 5730 5732 5734 5736 5737 5738 5739 5739 5739 5740 5740 5739 5738 5737 5737 5735 5734 5732 5731 5729 5728 5727 5727 5727 5726 5724 5722 5722 5723 5725 5728 5730 5733 5735 5738 5740
5721 5723 5725 5727 5729 5730 5731 5731 5732 5732 5732 5732 5732 5731 5729 5728 5727 5725 5724 5722 5720 5719 5718 5718 5717 5717 5716 5715 5712 5711 5712 5714 5717 5720 5723 5726 5728 5731
5717 5719 5720 5721 5723 5724 5724 5725 5725 5725 5725 5724 5723 5721 5720 5718 5716 5715 5713 5712 5710 5709 5708 5708 5707 5706 5706 5706 5704 5703 5703 5705 5708 5711 5714 5716 5719 5722
5712 5714 5715 5716 5717 5717 5718 5718 5718 5717 5716 5715 5713 5712 5710 5708 5706 5704 5703 5701 5700 5698 5698 5697 5697 5696 5696 5696 5695 5695 5695 5696 5699 5702 5705 5707 5709 5712
5707 5708 5709 5710 5711 5711 5711 5711 5711 5709 5708 5706 5705 5703 5701 5699 5696 5695 5693 5691 5689 5688 5687 5687 5686 5686 5686 5686 5687 5687 5687 5688 5690 5693 5696 5699 5702 5703
5703 5704 5705 5705 5705 5705 5705 5705 5704 5703 5702 5700 5698 5696 5694 5691 5688 5686 5683 5682 5680 5679 5678 5677 5676 5677 5677 5677 5678 5679 5680 5681 5683 5685 5689 5692 5695 5698
5699 5700 5700 5701 5701 5701 5701 5701 5700 5699 5697 5695 5693 5690 5686 5683 5680 5677 5674 5672 5670 5669 5668 5668 5667 5667 5668 5669 5670 5671 5673 5674 5676 5678 5681 5685 5688 5691
5695 5696 5696 5697 5698 5698 5697 5696 5695 5694 5692 5689 5686 5682 5678 5674 5671 5667 5664 5662 5660 5659 5658 5658 5658 5658 5659 5660 5661 5663 5665 5666 5669 5671 5674 5678 5681 5685
5692 5693 5693 5694 5695 5694 5693 5692 5691 5689 5686 5682 5678 5674 5669 5665 5661 5658 5655 5653 5651 5650 5648 5648 5648 5649 5650 5652 5653 5655 5657 5659 5662 5665 5668 5671 5674 5678
5689 5690 5691 5691 5691 5690 5689 5688 5686 5683 5679 5675 5670 5665 5661 5656 5653 5650 5647 5645 5644 5642 5641 5639 5639 5640 5642 5643 5645 5647 5649 5652 5655 5658 5661 5664 5667 5671
5686 5687 5687 5687 5686 5686 5685 5683 5681 5678 5673 5669 5663 5658 5654 5650 5647 5644 5641 5638 5636 5635 5634 5632 5631 5632 5633 5634 5636 5639 5641 5644 5647 5650 5653 5656 5659 5662
5682 5683 5683 5683 5683 5682 5682 5680 5676 5673 5668 5663 5658 5653 5648 5644 5641 5638 5635 5633 5631 5628 5627 5626 5625 5624 5625 5626 5627 5630 5633 5636 5639 5642 5645 5648 5650 5654
5679 5679 5679 5679 5680 5679 5677 5675 5672 5668 5664 5659 5653 5648 5644 5639 5636 5633 5631 5628 5625 5623 5621 5620 5618 5617 5617 5618 5619 5620 5623 5626 5629 5633 5636 5639 5641 5645
5675 5675 5675 5676 5675 5674 5673 5671 5668 5664 5660 5655 5650 5645 5640 5636 5632 5629 5626 5623 5621 5618 5616 5614 5612 5611 5610 5610 5610 5612 5614 5616 5619 5622 5625 5628 5631 5635
5671 5671 5671 5671 5671 5670 5669 5667 5664 5660 5656 5652 5647 5642 5637 5633 5628 5625 5621 5619 5616 5613 5611 5609 5607 5605 5603 5602 5602 5603 5604 5606 5608 5610 5613 5616 5620 5623
5666 5667 5667 5667 5667 5667 5665 5663 5660 5657 5653 5649 5644 5639 5634 5629 5625 5620 5617 5613 5610 5607 5604 5602 5600 5598 5596 5595 5594 5594 5594 5596 5597 5599 5602 5604 5607 5611
5661 5662 5662 5663 5663 5663 5662 5660 5657 5654 5650 5646 5641 5636 5631 5626 5621 5616 5612 5608 5604 5601 5598 5595 5593 5591 5589 5588 5586 5585 5585 5585 5586 5587 5590 5592 5595 5598
5656 5656 5657 5658 5659 5658 5657 5656 5654 5651 5647 5643 5638 5633 5627 5622 5618 5613 5608 5604 5599 5595 5592 5589 5586 5583 5581 5580 5578 5577 5576 5576 5576 5577 5578 5580 5583 5586
Wind_Speed
35 35 37 37 36 32 29 28 28 29 30 31 31 31 32 33 34 34 33 32 32 32 32 33 35 36 37 40 41 41 39 39 38 39 38 40 40 38
30 30 30 29 26 25 25 27 28 30 31 31 32 32 33 33 34 34 33 32 32 31 30 31 33 35 38 40 42 42 42 41 40 39 37 36 39 39
24 23 22 21 21 23 26 27 29 30 31 32 32 33 34 35 36 36 36 36 36 35 33 32 33 36 38 41 43 44 43 42 40 38 37 34 34 38
23 21 21 22 23 25 26 28 29 30 31 33 34 35 35 37 38 39 39 39 39 38 36 35 35 37 39 41 42 43 42 41 40 38 36 34 32 35
23 23 23 24 24 25 27 28 29 29 31 33 34 35 36 36 37 38 39 40 39 39 38 38 37 38 40 40 40 41 40 40 40 38 36 34 32 32
23 23 23 23 24 26 26 27 28 29 31 32 33 34 35 36 37 38 39 39 39 39 38 38 38 38 39 39 38 38 38 38 38 37 35 33 31 31
22 21 21 22 23 24 25 26 27 29 30 31 32 32 34 35 36 37 38 38 39 38 38 37 37 37 37 37 35 35 35 35 35 33 32 31 30 30
21 20 20 20 21 22 23 25 27 28 29 30 31 32 34 35 36 37 37 38 38 38 37 36 36 36 36 35 33 30 30 30 30 30 30 30 30 31
19 19 20 20 21 22 23 25 26 28 29 31 32 33 34 34 35 37 38 38 38 38 37 36 35 35 34 34 34 30 28 28 29 29 29 30 32 33
17 18 18 18 18 20 22 23 24 25 26 26 28 29 31 33 34 35 35 36 37 37 36 35 34 33 32 32 33 32 28 26 28 29 31 31 31 33
16 16 16 16 17 17 17 18 18 19 20 23 26 28 31 33 35 36 36 35 35 34 34 33 32 31 30 29 29 29 25 23 26 30 32 32 32 32
13 14 14 13 13 12 12 14 16 19 22 25 28 30 32 34 35 35 36 35 35 33 32 31 30 30 28 28 27 27 27 23 23 27 31 33 34 32
11 11 10 9 10 11 13 16 19 22 25 28 29 31 33 34 34 33 32 32 32 31 30 29 28 28 28 27 25 25 26 26 23 24 28 31 33 32
9 9 8 9 11 13 15 18 21 24 27 29 31 33 34 33 32 30 29 28 28 27 27 26 26 26 25 24 24 23 24 25 25 23 24 28 31 32
9 9 10 12 14 15 17 20 23 26 28 31 33 33 33 31 30 28 27 26 25 24 23 23 24 24 25 24 24 24 23 21 22 23 22 23 27 31
9 10 12 13 14 15 18 20 23 26 28 30 32 31 30 28 27 26 25 25 25 24 22 21 21 22 23 24 25 25 25 24 21 22 24 24 24 27
11 12 12 13 13 15 17 19 22 24 27 28 29 28 27 25 24 23 23 23 24 23 22 20 20 20 21 23 25 26 27 27 26 25 25 26 25 26
13 13 13 13 14 15 16 18 20 23 25 27 26 25 24 24 22 21 21 21 22 22 21 20 19 19 20 21 24 27 29 30 30 30 29 29 29 29
14 15 15 14 14 15 16 17 20 22 24 25 25 24 23 22 21 21 20 21 22 22 21 20 20 20 20 20 23 26 30 33 34 34 34 33 33 33
16 16 15 15 15 15 15 16 19 21 23 24 24 24 23 22 22 21 21 21 22 23 23 21 21 21 21 21 22 23 26 30 35 37 39 39 38 38
18 17 16 15 15 14 14 15 18 21 23 24 24 24 24 24 24 23 23 23 23 23 24 23 23 23 23 23 23 23 24 27 32 37 40 42 42 43
19 18 17 16 15 15 14 15 16 19 22 24 25 26 27 26 26 26 25 25 25 24 24 24 24 24 24 24 24 24 24 25 28 32 37 41 44 45
19 19 18 17 16 15 14 14 16 19 21 24 26 28 29 29 29 28 28 28 27 26 25 24 24 24 24 24 25 24 24 25 26 29 32 36 40 43
Wind_Direction
249 247 248 248 249 250 252 256 260 262 263 265 266 269 272 275 277 279 281 281 282 282 283 285 285 283 280 275 270 264 262 261 262 261 261 258 251 245
243 244 245 247 248 250 253 257 261 263 263 263 264 267 270 273 276 279 282 285 287 288 290 293 293 288 281 274 270 265 262 261 261 261 262 264 254 242
242 246 251 256 259 261 261 262 263 263 265 266 268 269 271 273 275 278 281 284 287 289 292 295 296 294 286 278 271 266 262 261 259 259 259 261 259 244
250 258 265 271 272 269 267 265 265 266 268 270 272 274 276 277 279 280 282 284 286 288 291 293 294 294 291 283 274 266 261 259 255 255 256 256 257 250
257 262 266 270 271 270 269 268 270 272 273 274 276 278 280 280 282 283 284 285 286 289 290 290 290 290 292 288 276 265 259 256 252 251 252 253 254 250
258 262 265 267 269 270 272 274 276 277 277 278 280 281 282 284 284 285 285 286 286 287 288 287 285 285 290 288 278 265 257 252 249 247 247 250 251 248
259 262 265 268 271 274 276 278 280 280 280 282 283 285 285 285 286 286 286 287 286 286 286 284 281 280 282 285 278 265 254 249 245 243 243 243 243 242
257 262 266 270 274 277 279 281 282 283 284 286 286 287 287 287 287 286 286 286 286 284 284 282 280 278 276 278 275 266 253 243 239 238 237 237 238 237
258 261 266 270 272 275 277 279 282 285 287 289 290 291 291 289 288 287 286 285 284 282 281 281 280 280 278 275 274 271 258 245 236 232 230 231 230 228
258 260 262 265 269 274 280 284 287 291 294 296 296 296 295 294 293 290 288 287 284 283 281 281 280 280 280 278 275 276 265 245 234 230 229 228 226 221
257 260 264 270 277 282 287 292 296 300 303 304 303 302 299 297 295 293 291 289 287 285 283 281 279 278 277 278 277 275 269 251 233 229 229 230 228 230
259 263 269 276 283 290 296 303 306 308 309 308 306 303 301 299 296 294 291 289 286 285 284 282 279 276 275 274 273 270 270 264 242 232 229 231 233 234
264 269 275 281 288 295 301 306 308 309 310 309 308 306 303 301 298 295 292 290 287 285 283 281 277 273 271 270 268 266 267 267 262 244 235 234 233 234
268 270 276 284 291 297 302 306 308 311 313 312 311 309 307 304 302 299 296 293 291 289 286 280 275 271 267 264 262 260 261 263 265 255 242 238 234 231
266 271 282 289 294 301 306 310 312 315 316 316 315 313 311 307 304 302 300 298 296 294 291 285 278 270 263 258 256 254 253 253 254 251 249 242 238 234
272 279 288 293 298 304 310 313 315 318 320 320 320 317 314 310 306 302 301 300 299 297 294 289 281 274 265 256 252 250 249 246 241 241 242 245 244 240
276 283 288 293 301 306 308 312 317 322 325 326 326 323 319 316 312 307 304 302 302 302 300 294 285 276 268 258 250 246 244 244 242 238 238 240 243 244
277 282 286 289 294 301 308 317 324 329 331 333 332 329 326 323 319 315 312 308 307 306 306 303 296 286 274 264 254 246 242 239 238 238 237 236 238 241
279 281 282 285 294 304 314 323 331 334 336 336 335 334 331 329 325 321 316 312 311 309 307 306 301 294 286 274 261 251 244 241 239 237 236 236 235 235
281 281 281 284 292 302 313 325 333 338 340 341 340 338 336 333 330 326 321 316 312 309 307 304 300 296 292 284 275 264 252 245 242 240 238 238 237 237
279 277 275 278 287 297 311 326 336 341 343 344 344 343 341 339 336 331 325 320 316 312 308 305 300 296 294 290 284 276 265 254 246 242 240 239 238 238
276 271 268 272 281 291 304 321 333 340 342 345 347 347 347 345 342 338 333 328 322 317 312 308 304 298 294 292 288 283 276 267 257 249 243 241 240 240
271 265 263 267 275 284 298 314 326 335 341 345 349 351 351 349 346 342 338 333 328 322 317 312 308 303 299 295 293 288 282 274 266 258 252 247 243 241